Meath Environmental Platform

Observations for Trim Market St

Time AQI Temp °C Hum % Pres Pa CO μg/m³ H₂S μg/m³ NO μg/m³ NO₂ μg/m³ O₃ μg/m³ SO₂ μg/m³ PM1 μg/m³ PM2.5 μg/m³ PM10 μg/m³
Monday 24 August 2026
16:22 3 35.5 22 66,511 0 1.71 0.65 40.69 123.69 0 2.14 6.99 7.69
16:17 3 35.7 21 66,541 0 0 0.64 33.3 108.53 0 1.43 5.9 6.49
16:11 3 35.8 21 66,552 0 0 0.72 26.91 120.85 0 2.14 5.91 6.51
16:08 3 35.8 21 66,548 0 0.9 0.79 28.27 99.86 0 2.14 6.47 6.61
16:07 3 35.9 21 66,556 0 4.45 0.78 43.94 132.81 0 0 3.7 4.07
16:06 3 35.8 21 66,562 0 0 0.77 35.14 121.49 0 2.14 6.48 7.52
16:05 3 35.9 21 66,570 0 0 0.77 35.44 122.81 0 0.71 4.83 5.31
16:04 3 36 21 66,580 0 0 0.77 30.74 130.34 0 2.85 6.49 7.14
16:03 3 36 21 66,564 0 0 0.77 28.57 124.22 0 2.85 7.05 7.76
16:02 3 36.1 21 66,545 0 0 0.87 36.03 109.89 0 1.43 5.38 5.92
16:01 3 36.1 21 66,545 0 0 0.85 29.34 116.22 0 1.43 5.93 6.52
16:00 3 36.1 21 66,543 0 1.13 0.84 41.5 130.79 0 0 4.82 5.3
15:59 3 36.1 20 66,570 0 7.24 0.84 86.01 102.92 0 2.14 5.39 5.93
15:58 3 36.2 20 66,578 0 0.39 0.82 38.52 135.27 0 1.43 5.4 5.94
15:57 3 36.2 20 66,558 0 0 0.7 32.67 114.87 0 2.14 5.96 6.55
15:56 3 36.3 20 66,564 0 0 0.77 32.12 135.59 0 3.56 7.09 7.52
15:55 3 36.4 20 66,570 0 0 0.76 32.5 109.92 0 2.85 7.09 7.8
15:53 3 36.6 20 66,578 0 0 0.77 25.37 105.85 0 2.85 6.52 6.6
15:52 3 36.6 20 66,586 0 0 0.77 29.34 126.83 0 2.14 5.96 6.56
15:51 3 36.6 20 66,588 0 0 0.77 36.81 131.86 0 1.43 5.98 6.57